GFSMA_sfc_dewp_009.txt.gz
Dewpoint
73 73 73 73 74 73 72 73 73 72 71 69 69 69 68 69 69 67 68 71 72 73 73 73 72 73 72 71 72 72 71 71 70 72 71 71 71 71 71 70 70 70 70
77 76 72 73 72 73 72 73 72 71 69 69 68 68 67 66 68 69 66 69 71 72 73 73 73 73 73 73 71 71 73 73 73 71 72 73 72 72 71 71 71 70 71
76 75 76 75 73 73 73 72 71 71 69 68 67 66 66 67 65 68 68 67 69 71 72 72 75 75 74 73 73 73 73 73 74 73 73 73 73 73 73 73 73 72 72
75 76 77 75 74 73 71 71 70 69 69 67 66 66 66 66 67 67 67 67 67 66 70 71 72 75 73 72 73 73 74 74 74 74 74 74 74 74 74 73 73 73 73
75 76 76 75 73 72 74 72 70 70 66 65 64 65 65 65 66 64 67 68 68 68 66 72 71 72 72 72 73 73 74 74 73 74 74 74 74 74 74 74 74 74 74
74 74 74 74 73 72 71 71 71 70 68 67 65 64 65 66 65 65 66 64 64 68 69 71 71 70 72 72 73 74 74 73 73 74 74 74 74 74 74 74 74 74 74
74 75 75 73 73 71 71 71 70 69 66 69 66 61 64 65 64 64 64 62 60 62 65 68 69 70 70 71 72 72 72 73 73 74 73 74 74 74 74 74 74 74 74
75 74 73 72 72 69 71 70 70 67 67 69 65 64 58 61 63 62 62 57 59 59 60 64 66 68 68 68 69 70 71 71 72 73 73 73 73 73 73 74 74 74 74
74 74 73 71 71 69 65 70 69 69 65 68 68 64 58 56 59 63 63 58 59 57 59 61 64 65 64 63 64 66 68 69 71 71 72 73 73 73 73 73 73 74 74
73 73 73 71 71 67 69 69 69 69 69 64 66 68 67 65 58 55 57 57 55 54 59 56 57 59 59 57 60 63 64 65 65 66 68 71 71 72 73 74 73 73 74
73 71 71 70 69 68 70 69 70 69 68 66 65 64 65 64 65 57 50 51 54 55 55 56 57 55 57 57 56 61 62 61 62 63 63 65 67 70 72 72 74 74 74
70 70 68 69 70 69 69 67 69 68 68 68 67 65 61 57 56 57 55 56 55 55 55 54 55 56 55 55 55 60 61 61 61 61 62 63 64 66 69 71 72 73 75
68 67 69 69 68 70 68 68 68 68 67 66 68 62 62 61 62 61 59 55 55 54 56 55 55 56 56 56 56 60 60 61 61 62 61 61 62 63 64 68 70 72 73
67 67 68 68 69 67 66 68 66 65 67 65 67 67 62 62 63 62 60 58 53 52 53 57 54 54 56 56 59 60 57 61 62 62 62 62 61 62 63 64 66 69 71
65 67 67 68 67 65 66 68 63 66 67 67 66 67 65 62 63 63 63 61 57 53 52 52 53 56 57 57 59 60 60 61 62 62 61 61 62 62 62 63 64 67 68
67 67 67 66 65 65 65 67 65 65 66 64 64 66 66 63 63 65 64 62 60 57 54 52 54 57 59 59 59 60 60 61 61 60 60 60 61 62 62 62 63 64 66
67 67 67 65 65 64 65 66 66 65 65 65 66 66 66 67 63 64 64 63 60 59 57 54 54 59 62 62 61 61 60 60 57 60 60 60 60 60 60 61 61 62 63
66 66 66 66 65 64 65 66 65 62 64 64 64 65 65 63 66 66 62 64 64 62 59 59 60 57 60 62 62 62 60 57 57 58 59 59 59 59 59 59 59 60 61
66 64 65 65 65 64 66 66 65 64 64 64 64 64 64 65 65 62 63 61 59 65 62 59 57 55 56 58 59 60 60 60 57 58 58 59 59 59 58 58 57 58 58
66 66 65 65 65 65 65 64 62 64 64 63 64 64 64 64 64 63 62 63 62 60 60 58 56 55 54 58 57 55 54 54 54 53 56 57 58 57 58 57 57 58 57
65 65 65 65 65 63 59 63 63 63 64 64 64 65 65 64 63 62 59 60 62 59 56 54 54 53 53 52 54 54 53 53 55 54 53 53 53 51 53 55 57 59 58
64 65 63 64 65 60 59 60 62 63 64 64 64 64 64 61 61 60 60 61 62 60 59 62 57 55 57 56 55 53 52 51 50 54 55 53 53 52 53 53 56 57 57
64 64 63 63 65 65 59 59 61 62 63 63 64 64 61 58 60 60 58 59 59 60 61 61 58 57 57 57 57 55 55 54 53 55 55 53 53 53 54 54 56 56 56
67 64 64 65 66 64 59 57 60 63 64 64 64 63 63 62 61 59 59 58 59 59 59 56 57 57 57 56 56 56 56 55 55 55 57 52 51 51 53 55 56 56 56
66 66 65 65 65 65 58 57 61 63 63 64 64 63 61 60 58 55 56 57 58 57 55 54 54 54 54 55 55 54 53 53 52 52 52 51 51 51 53 53 55 56 56
65 65 65 66 63 66 57 56 60 63 61 61 62 61 56 58 53 53 57 57 56 56 55 54 53 53 54 54 55 56 53 54 54 52 52 52 53 53 52 53 54 56 58

GFSMA_sfc_dewp_015.txt.gz
Dewpoint
73 70 70 69 71 70 71 70 73 70 71 70 69 66 64 63 62 60 62 74 72 71 73 73 74 73 74 72 73 73 72 71 70 70 71 70 70 71 72 70 70 70 71
75 75 74 68 68 73 73 72 71 72 73 72 70 66 62 60 60 60 58 68 74 72 73 73 73 73 73 73 72 73 73 72 71 70 71 72 73 72 71 70 70 70 71
73 74 71 69 72 72 73 72 72 71 70 68 62 60 58 59 58 61 60 58 68 74 74 73 74 74 74 73 73 73 75 74 74 73 73 74 73 74 73 73 72 72 72
74 74 70 69 73 72 72 73 69 73 65 60 58 57 58 59 62 62 60 61 58 58 72 74 72 73 73 73 73 74 74 74 75 75 75 74 74 74 74 74 74 74 73
74 73 71 70 72 70 73 70 70 67 61 59 56 54 58 60 61 58 61 61 63 62 60 74 74 72 72 73 73 74 74 74 74 74 74 75 74 74 74 74 74 74 74
73 73 70 72 72 74 71 74 69 65 63 61 56 55 59 61 61 60 60 58 61 62 64 65 69 69 72 71 72 73 73 74 74 74 74 74 74 74 74 74 74 74 74
74 74 72 74 72 70 72 68 65 64 59 62 60 58 59 61 61 60 59 56 58 59 62 64 68 70 71 73 73 73 72 72 73 74 74 74 74 74 74 74 74 74 74
74 73 75 70 73 67 70 67 66 61 58 63 59 56 54 62 62 57 58 56 57 56 59 63 65 69 71 71 70 69 69 70 71 72 71 73 73 74 74 74 74 74 74
72 74 73 73 72 69 61 67 65 65 59 61 64 59 54 55 57 62 60 56 57 55 56 60 61 61 64 64 68 65 64 64 65 65 66 68 70 72 73 74 74 74 74
70 72 72 70 70 65 70 66 63 66 65 60 59 60 64 62 56 56 59 56 54 54 56 54 55 57 58 58 63 62 61 61 61 61 61 62 63 66 68 71 73 73 74
70 68 70 70 69 63 68 68 66 67 64 61 58 58 62 58 60 54 50 54 54 53 54 53 53 52 57 55 57 61 60 60 60 61 61 62 63 63 64 65 68 70 73
67 70 69 70 69 68 67 66 67 66 67 66 62 61 55 54 54 53 51 55 53 54 53 54 54 53 53 54 56 61 60 60 60 60 60 61 62 62 63 63 64 65 68
63 72 72 71 66 69 68 68 69 67 66 64 66 61 58 56 55 54 53 51 51 51 56 54 55 55 53 54 56 59 62 63 63 62 61 61 61 61 62 62 62 63 64
64 74 71 69 67 68 68 69 64 63 67 63 64 65 60 57 55 55 55 54 57 56 60 65 60 56 55 55 59 62 58 65 65 62 61 62 62 61 62 62 62 62 62
63 67 70 69 67 67 68 69 63 66 66 66 65 65 62 57 55 55 58 63 61 58 56 61 60 63 60 56 59 58 61 64 65 62 62 62 62 63 62 61 62 62 62
71 71 69 68 67 67 67 68 66 66 66 63 60 64 65 59 58 57 61 60 61 57 54 58 56 59 62 57 62 61 60 64 64 64 63 62 62 63 63 63 62 62 63
73 71 71 68 67 67 66 67 67 65 65 66 65 63 64 66 59 57 56 56 54 53 52 52 54 59 66 65 62 63 61 63 59 62 63 63 62 62 61 61 61 61 62
73 72 71 70 68 68 68 67 65 63 63 62 62 65 63 59 69 69 60 66 63 62 54 61 60 57 63 65 65 66 60 55 57 58 63 63 61 60 60 60 60 60 60
74 70 70 69 69 67 66 67 67 67 66 65 64 66 64 65 67 62 65 61 56 60 59 54 55 57 57 59 60 62 64 62 59 59 59 60 60 60 59 58 58 57 57
74 70 71 70 69 67 66 65 66 66 67 65 66 65 65 65 67 67 65 67 65 61 60 55 53 55 56 58 58 57 57 57 55 51 56 56 58 59 60 58 58 58 56
73 71 71 70 69 66 64 64 66 66 67 66 65 65 65 66 65 65 62 65 67 60 55 53 52 53 53 56 56 55 55 55 56 55 54 53 52 52 53 57 59 60 58
74 72 70 69 67 64 61 63 66 66 66 66 66 66 67 66 65 63 63 62 62 62 63 57 54 55 60 58 56 56 54 52 50 54 54 52 53 54 55 56 57 57 57
73 71 70 68 67 65 61 61 63 63 65 65 65 67 65 59 64 63 63 62 61 61 60 61 61 61 61 61 62 60 59 56 53 51 54 52 54 54 56 54 57 57 56
71 70 70 68 65 65 61 61 62 64 64 64 66 67 69 68 67 65 65 63 63 63 63 60 61 61 63 62 60 58 59 58 55 53 57 54 55 54 54 55 56 57 55
70 68 67 67 67 68 60 58 61 63 63 64 65 67 68 68 63 60 61 61 62 62 58 58 58 56 55 55 55 52 51 49 49 50 53 52 53 52 53 54 55 55 55
69 67 66 65 63 67 58 57 60 64 66 66 67 69 62 63 58 58 60 61 60 59 57 57 58 57 56 58 56 58 54 51 49 49 51 48 48 52 53 54 54 54 54

GFSMA_sfc_dewp_021.txt.gz
Dewpoint
70 71 72 72 72 71 71 70 72 70 70 70 69 67 64 59 63 70 71 75 74 75 74 74 74 73 74 72 73 73 72 71 72 72 72 72 71 72 72 71 72 71 71
71 73 71 70 71 71 72 72 70 70 70 71 70 69 67 61 61 63 71 72 74 74 75 74 74 74 74 73 73 73 73 72 72 71 73 73 73 73 72 72 72 71 71
71 72 72 70 73 72 72 72 70 71 70 70 68 68 64 60 62 61 64 70 72 73 74 75 75 75 74 74 73 73 75 74 74 73 73 73 73 73 73 73 73 72 72
73 72 72 72 71 72 70 70 70 70 69 68 62 60 60 59 61 61 61 65 70 69 73 74 74 74 74 74 74 74 74 75 74 74 74 73 73 74 74 74 74 73 73
73 72 72 72 72 72 71 71 69 68 64 61 60 58 61 63 61 61 62 60 63 68 70 73 74 74 72 72 73 73 74 74 75 74 74 74 74 74 74 74 74 74 74
74 73 72 72 72 70 71 69 68 67 63 62 61 60 62 61 61 63 62 61 61 68 70 69 71 71 74 72 74 73 73 73 74 74 74 74 74 75 74 74 74 74 74
73 73 71 72 72 71 70 68 66 61 62 64 61 61 63 62 60 61 60 58 57 64 67 69 70 71 72 72 73 73 72 71 72 73 72 72 73 73 73 74 74 74 74
74 72 72 72 71 71 69 65 63 62 63 65 60 60 59 60 62 60 58 56 58 60 65 67 68 69 70 70 68 69 69 70 72 72 72 72 72 72 72 72 72 72 73
74 72 72 72 72 69 67 64 63 63 61 65 59 60 58 57 61 61 57 56 58 59 61 60 60 64 69 67 64 63 64 65 64 65 65 65 66 67 68 70 72 72 72
73 73 72 72 70 69 67 65 65 63 63 60 64 63 61 58 57 56 59 57 56 54 55 60 57 57 68 66 63 63 63 64 61 61 61 61 63 63 64 65 68 70 71
72 73 72 72 68 67 68 66 64 62 65 65 64 64 61 61 58 56 55 56 59 57 55 56 58 57 62 61 58 61 63 63 62 60 59 59 60 61 62 63 64 65 66
70 72 72 70 67 64 67 65 65 64 63 65 63 64 59 58 58 58 55 54 55 56 59 58 55 58 57 62 61 63 65 64 63 62 61 60 59 59 60 60 61 62 63
68 70 71 69 67 67 67 67 65 64 63 64 65 61 63 61 59 56 55 55 55 58 56 59 58 59 58 60 61 65 66 65 63 62 62 62 62 61 61 60 60 61 61
68 70 71 68 67 66 69 68 66 66 65 64 63 63 62 61 61 59 55 56 52 55 58 55 60 60 58 59 62 67 62 65 65 65 63 63 64 64 64 63 62 61 61
69 69 71 68 67 67 66 68 66 64 66 64 62 63 61 61 61 61 61 58 54 52 53 56 56 60 61 60 62 62 58 63 65 65 64 63 63 64 65 65 64 64 64
70 69 71 69 68 67 67 68 65 66 65 65 64 64 62 61 62 61 61 58 58 55 54 57 58 59 59 60 63 60 60 65 66 65 64 63 63 63 64 64 64 64 64
70 70 70 69 67 67 68 67 65 64 66 63 65 64 64 62 61 60 62 60 59 60 58 56 57 57 61 58 60 60 61 62 61 64 64 63 63 62 63 63 64 64 63
70 70 70 69 67 65 67 67 64 64 64 65 64 63 62 63 61 61 62 61 61 60 57 56 59 58 59 60 61 61 62 62 60 62 63 63 62 62 62 62 62 62 62
71 70 70 69 67 66 66 67 65 64 64 65 65 64 63 62 62 63 63 62 62 61 61 59 57 59 58 59 57 58 59 60 61 63 61 61 60 60 60 60 60 59 58
71 70 69 68 67 66 67 66 65 65 65 65 64 65 63 62 62 64 63 63 62 62 61 60 59 58 58 58 59 57 56 57 58 59 60 59 60 60 60 60 59 59 57
72 70 69 68 68 66 67 65 65 65 65 65 65 65 64 65 66 66 65 64 63 62 61 61 59 57 55 57 56 57 57 57 57 57 56 54 54 52 53 56 59 62 60
74 71 69 70 69 67 64 64 65 64 65 65 65 65 64 66 66 65 64 64 63 62 60 60 57 55 56 58 58 58 57 56 55 56 54 52 51 51 50 51 57 58 57
74 73 71 69 69 68 63 63 65 65 65 65 65 66 65 65 64 65 63 63 63 63 62 58 56 56 57 58 59 57 56 56 56 55 53 51 52 52 53 54 57 58 57
73 74 72 70 69 69 62 62 64 64 65 65 66 66 63 61 63 64 63 63 63 62 62 61 59 59 60 60 60 59 57 55 54 54 54 51 53 52 53 53 56 57 57
74 74 73 70 70 67 60 60 62 63 64 64 64 64 60 60 61 61 61 59 59 61 61 60 60 60 59 59 60 56 53 52 51 50 51 52 51 48 47 44 45 54 54
74 73 70 70 67 67 59 58 59 62 61 62 63 64 60 61 59 58 61 60 60 60 59 59 59 58 56 55 57 55 54 53 52 51 52 51 47 43 41 44 48 50 52

GFSMA_sfc_dewp_024.txt.gz
Dewpoint
69 70 71 72 72 70 71 70 71 70 70 70 69 66 64 68 70 70 69 72 75 75 74 73 73 73 72 73 73 72 72 71 71 71 72 72 71 71 70 70 70 71 71
70 71 70 70 72 71 72 72 70 69 70 70 70 69 66 62 68 69 70 72 74 75 75 75 74 73 73 72 73 73 73 71 71 72 72 73 73 71 71 71 71 71 70
71 72 71 69 71 71 73 72 69 69 70 69 67 66 63 60 62 67 70 70 71 74 75 75 74 74 73 73 73 74 74 74 73 72 73 73 73 72 72 72 72 72 72
71 71 71 71 70 71 69 69 69 68 65 61 59 58 60 58 61 61 66 68 70 69 73 74 75 75 72 73 73 73 74 74 74 74 73 72 72 72 73 73 73 73 73
73 71 71 71 71 72 70 70 68 67 62 60 59 60 61 62 61 61 62 65 68 69 69 73 73 74 72 71 71 73 73 73 74 74 74 74 73 73 74 74 74 74 74
73 71 71 72 71 70 70 68 67 67 62 63 62 60 61 61 62 60 62 60 65 68 70 69 70 71 72 72 72 72 72 73 73 73 74 74 74 73 74 73 73 73 74
73 71 71 72 71 69 69 67 64 60 59 63 59 59 62 61 60 61 58 58 65 67 69 69 70 71 72 72 73 72 71 71 71 72 73 72 72 72 72 72 73 74 74
73 72 71 71 71 71 69 65 61 61 62 64 58 59 58 58 60 58 57 60 62 67 67 68 68 69 69 69 69 70 70 71 71 71 71 70 70 70 71 71 72 72 72
73 72 71 71 71 70 67 63 63 60 60 63 59 59 57 56 60 60 56 58 59 61 63 64 67 69 67 66 64 64 66 67 66 65 65 65 65 65 66 68 69 70 72
73 72 72 71 68 69 64 63 65 64 60 58 62 62 59 57 57 57 58 57 56 56 60 59 59 68 66 63 61 62 64 65 64 61 60 61 61 62 63 64 66 68 69
72 72 72 71 68 67 65 64 63 64 64 62 62 63 60 61 56 55 54 55 57 56 55 57 57 62 66 63 60 62 64 65 64 62 59 59 59 59 59 60 61 62 63
72 72 72 71 67 66 66 64 62 63 64 64 63 62 58 56 57 57 54 54 54 56 57 56 58 57 64 62 60 62 66 65 64 64 63 61 60 59 59 59 60 60 61
69 71 71 69 66 64 66 64 65 64 63 63 61 61 62 59 58 55 53 55 53 57 56 57 58 56 57 61 60 65 66 64 63 62 63 63 64 63 62 62 62 61 60
68 71 70 68 66 66 66 66 64 64 63 62 63 62 60 60 60 57 54 54 51 54 57 54 58 59 58 59 62 68 62 65 65 64 63 63 64 65 65 65 64 64 62
67 70 70 67 66 65 67 67 64 64 65 63 62 61 62 59 61 60 60 55 52 51 51 54 55 59 60 59 61 64 60 63 65 65 64 64 64 64 65 65 66 66 65
68 69 69 67 66 64 66 67 65 64 64 64 63 62 61 61 60 60 60 57 56 52 50 56 57 57 59 59 61 62 60 63 64 65 64 64 64 64 64 64 65 65 65
67 68 69 68 66 65 65 66 65 65 63 63 64 63 63 61 61 59 61 59 59 59 57 57 57 55 60 57 58 61 60 60 61 63 64 64 63 63 64 64 64 64 64
68 68 69 68 67 66 65 66 65 64 65 64 63 64 62 63 62 60 60 60 59 60 57 54 57 58 58 58 59 59 60 61 62 62 62 62 62 62 62 62 62 62 62
69 69 68 69 67 66 66 66 65 64 63 64 64 63 62 61 61 61 61 61 62 63 61 59 57 59 58 58 58 57 58 59 60 63 62 61 60 60 59 59 59 59 59
69 69 69 69 68 66 65 67 66 64 64 64 64 64 63 62 61 61 62 63 63 62 62 61 60 60 59 58 59 56 55 56 57 58 60 59 60 59 58 57 58 59 57
70 70 69 69 68 67 65 65 66 65 64 64 64 64 64 64 64 62 64 64 63 62 61 60 60 59 57 56 57 57 57 57 57 57 56 55 55 52 52 55 56 58 58
73 70 69 69 68 67 64 64 65 65 64 64 63 63 64 66 65 64 64 64 63 62 61 60 60 57 57 56 58 57 57 55 54 56 55 54 52 51 52 52 55 57 57
72 71 69 69 68 67 62 63 65 65 65 65 65 64 64 65 65 64 63 63 63 62 62 61 59 57 56 57 57 56 56 55 54 56 53 51 51 51 53 53 57 57 57
72 73 71 69 69 68 62 61 64 66 66 66 65 65 64 65 63 64 63 62 62 63 62 61 61 58 59 58 58 58 57 55 54 55 53 51 52 52 53 53 57 57 55
73 73 73 70 69 69 61 60 64 66 66 65 66 66 66 64 61 60 62 60 61 61 62 60 60 59 59 58 59 57 56 53 51 51 51 51 51 51 49 47 46 52 53
73 73 73 71 68 70 59 58 63 65 64 63 64 64 60 60 57 57 60 59 58 59 60 59 58 57 57 57 58 57 55 53 51 50 53 51 50 48 44 43 43 46 49

GFSMA_sfc_dewp_030.txt.gz
Dewpoint
71 71 71 72 72 72 72 72 72 71 70 71 69 67 68 67 67 68 68 70 73 73 72 72 73 72 72 72 72 72 71 71 72 71 71 71 71 71 69 69 69 69 69
72 71 71 72 73 72 73 72 72 71 71 71 71 70 67 68 69 70 70 68 73 73 73 72 72 72 72 73 72 72 72 72 71 72 70 72 72 70 69 69 70 70 71
72 72 72 71 72 72 73 73 71 71 67 64 63 62 64 67 65 70 70 68 70 72 73 73 73 72 72 72 72 72 73 73 71 71 72 72 72 72 71 70 71 71 72
72 72 72 71 72 73 73 71 71 69 65 64 62 63 64 63 63 68 70 69 70 69 70 73 74 73 71 71 71 73 73 73 72 73 73 73 72 72 73 73 72 72 71
72 72 72 72 72 72 72 71 69 68 64 64 63 63 64 64 64 64 67 69 69 70 69 70 73 72 71 70 71 71 71 72 72 73 74 74 73 73 74 74 73 73 73
72 72 72 73 72 72 71 70 68 67 64 64 61 62 64 63 65 65 64 64 67 70 69 70 72 70 72 70 72 72 71 71 72 73 73 73 74 73 73 74 74 74 73
73 73 72 72 72 71 71 69 67 65 62 64 61 62 63 62 63 61 62 67 69 69 69 69 70 72 72 72 71 71 71 71 71 72 72 72 72 73 73 73 73 73 73
73 73 72 72 72 71 70 68 66 63 63 64 61 61 60 62 62 59 63 66 68 69 68 69 70 70 70 71 71 72 72 71 71 71 71 71 70 70 70 70 70 71 72
73 73 72 72 72 71 69 68 65 64 62 64 61 62 59 59 61 62 60 63 67 67 68 68 69 68 68 68 67 68 69 70 69 68 67 67 66 66 66 66 66 68 68
72 73 72 72 72 71 70 68 65 63 64 63 63 62 61 62 59 57 59 60 61 64 65 65 67 68 67 65 62 63 66 66 65 61 60 61 61 61 62 63 65 66 67
73 72 72 72 71 71 70 67 66 66 63 63 63 62 61 59 59 58 56 58 59 59 61 62 62 67 67 65 62 60 65 65 65 64 61 58 58 57 57 58 59 61 62
72 73 72 72 71 70 69 67 67 66 65 65 64 64 61 61 58 58 57 57 57 59 59 59 60 61 67 66 64 60 65 65 64 64 64 63 60 61 61 62 62 62 62
71 72 72 71 70 69 69 67 66 66 66 65 65 63 62 60 60 58 57 56 57 58 59 60 59 61 60 67 66 66 65 66 65 64 63 63 64 64 63 63 64 64 64
70 72 72 72 70 69 68 67 65 64 66 65 64 64 63 62 60 59 58 58 56 56 58 60 60 61 61 61 65 66 65 65 66 64 64 64 63 64 66 66 66 66 65
71 72 72 72 71 69 68 67 65 65 65 65 65 65 63 62 62 61 59 58 58 54 55 58 58 61 63 62 62 64 65 65 65 65 64 64 65 65 65 66 66 66 66
71 71 72 72 71 69 68 67 65 66 65 64 63 65 64 62 62 62 62 59 58 58 55 56 59 61 61 62 61 64 63 65 65 64 64 64 64 65 65 65 65 65 66
71 70 71 71 70 69 67 67 66 65 65 65 65 64 64 64 62 62 62 60 59 58 57 59 60 61 61 62 62 63 62 64 63 63 63 63 63 64 64 64 64 64 64
70 70 71 71 70 69 68 67 66 65 65 65 65 65 64 62 63 63 62 63 62 62 60 62 61 61 62 61 62 62 61 60 62 62 63 63 62 62 62 61 61 60 59
70 69 70 70 69 69 67 67 67 66 65 65 65 65 65 65 64 63 63 61 61 63 63 61 61 61 61 61 61 60 62 62 60 61 61 60 60 59 58 57 56 56 55
69 69 69 70 69 69 68 67 67 67 66 66 65 65 65 65 65 64 63 64 64 65 64 64 63 63 61 62 61 58 59 60 59 59 61 60 60 59 59 58 57 58 56
70 69 69 69 69 68 67 67 66 66 66 66 66 66 65 65 65 64 63 65 65 64 64 63 62 60 59 59 59 59 58 60 59 60 60 58 58 58 58 58 57 58 57
71 70 69 69 69 68 64 64 66 66 66 66 66 66 67 66 65 63 63 63 65 65 64 63 62 61 61 60 61 61 59 59 56 60 58 58 58 57 58 57 58 58 57
71 71 70 69 69 69 62 63 65 67 67 66 66 66 65 67 66 66 63 62 63 62 63 64 62 61 62 63 62 60 60 59 58 59 59 57 58 57 57 54 57 57 57
70 71 70 70 70 69 61 61 64 68 68 67 67 66 67 67 66 66 66 65 65 65 64 65 64 64 63 63 63 62 61 60 59 59 59 56 56 55 56 55 56 57 56
70 70 70 70 70 70 60 60 62 67 67 67 67 67 66 66 63 61 64 64 64 63 62 60 60 59 59 59 61 61 59 58 57 55 56 54 54 53 54 53 53 54 54
71 71 71 71 68 70 60 58 62 67 66 67 67 67 62 65 59 58 65 64 62 62 63 63 63 61 60 60 59 61 59 56 55 53 54 53 52 52 44 50 49 49 49

GFSMA_sfc_dewp_033.txt.gz
Dewpoint
73 73 73 72 73 72 72 75 74 72 71 70 69 67 68 68 68 67 67 70 72 72 71 71 72 72 72 72 72 71 71 69 71 71 71 71 71 71 70 69 69 69 69
74 73 73 71 73 73 73 73 74 72 71 71 71 68 67 67 69 69 67 67 71 72 71 71 71 72 72 72 72 72 72 71 71 72 71 71 71 71 70 69 70 70 71
73 75 73 71 74 74 75 74 72 71 66 64 66 64 64 67 66 68 69 67 66 70 70 71 71 71 72 72 73 72 72 73 72 71 72 71 71 72 71 71 70 71 71
74 74 73 71 72 74 77 74 72 69 67 64 64 64 66 64 64 67 68 68 68 66 68 70 72 71 71 71 72 73 73 73 73 73 73 71 73 72 72 73 72 71 71
74 73 72 72 74 73 76 73 71 70 65 64 63 64 65 65 66 63 66 68 69 69 67 69 72 72 69 69 70 70 72 74 74 71 72 73 73 73 73 73 73 73 72
74 74 72 74 74 72 73 72 72 69 66 65 60 63 64 65 66 65 64 64 68 69 68 69 68 68 70 68 71 70 70 71 72 72 73 73 73 74 73 73 74 74 74
75 75 72 74 74 73 73 73 71 69 64 67 62 63 63 64 64 63 64 66 68 68 69 69 69 71 70 71 71 70 71 70 70 71 72 72 72 72 72 72 72 73 73
75 75 75 73 74 72 74 73 71 67 66 67 62 63 59 60 61 61 66 66 68 66 67 68 69 70 69 68 71 72 72 71 71 72 71 71 71 70 70 69 70 69 69
75 75 75 74 74 73 71 73 71 69 62 66 65 62 58 57 61 62 64 67 68 65 66 65 65 68 68 64 62 66 70 70 68 67 66 65 65 65 65 65 65 66 67
74 75 75 75 75 73 73 72 71 69 66 63 64 64 66 65 57 56 61 64 66 64 66 64 64 66 66 61 59 63 64 66 64 61 61 61 61 61 62 62 63 64 65
74 74 75 75 75 73 74 74 72 70 65 63 62 62 64 62 65 59 55 58 62 62 64 64 63 64 66 64 59 59 62 65 64 60 59 59 59 59 59 59 60 61 62
71 74 74 75 75 74 74 73 73 71 68 66 65 64 60 59 58 60 58 60 58 59 60 60 62 61 64 64 63 63 64 65 64 65 64 60 60 61 61 62 63 63 63
70 74 75 75 74 75 74 74 73 71 70 67 69 64 63 61 62 60 59 59 57 59 60 60 60 61 60 64 64 66 66 65 65 64 64 64 64 63 64 63 64 64 64
70 74 75 75 75 75 74 73 71 69 69 68 69 68 64 63 61 61 59 58 56 57 59 61 61 60 61 62 65 68 64 65 66 65 64 65 64 65 65 66 66 66 65
70 73 74 75 75 74 73 73 70 70 69 69 68 68 65 63 63 61 60 59 56 52 53 59 57 63 63 63 64 64 65 66 66 66 65 64 64 65 65 66 66 66 67
73 73 74 74 74 74 74 73 70 71 69 67 66 68 68 64 64 63 62 60 59 56 53 57 58 63 64 63 64 65 64 65 65 65 65 64 65 65 65 66 66 66 66
74 74 74 74 74 74 73 73 72 70 69 69 68 68 68 68 63 62 62 62 60 59 56 58 59 63 64 64 63 65 63 65 62 64 64 64 63 64 64 64 65 64 63
74 75 74 74 74 74 73 73 71 69 69 68 68 68 67 65 68 67 63 66 63 63 59 63 62 61 64 66 65 65 62 59 62 63 64 64 63 62 62 62 61 60 59
75 73 74 74 73 73 73 73 72 71 70 69 68 68 67 67 66 64 64 63 62 63 63 60 59 61 62 62 63 64 64 63 61 63 61 61 61 61 60 59 58 57 56
74 74 74 74 73 73 73 72 72 71 71 70 69 68 68 68 67 67 66 66 65 64 64 62 60 60 62 63 62 59 58 60 59 59 60 60 62 62 61 59 58 58 56
74 74 74 74 73 72 70 72 72 71 71 70 69 69 68 68 66 67 66 68 68 65 62 61 61 60 60 60 60 56 59 59 61 63 57 58 58 57 57 60 60 60 58
74 74 74 74 73 71 66 66 70 71 71 71 70 69 69 67 66 64 64 65 67 67 66 62 60 60 63 62 59 59 58 57 55 62 60 57 59 58 57 57 59 58 58
74 74 73 73 73 73 63 63 66 70 70 71 72 70 68 67 67 67 63 63 63 63 64 67 65 64 65 64 65 64 62 61 59 64 62 56 57 57 55 52 58 58 57
74 74 74 73 73 73 62 62 64 71 72 72 71 71 71 69 69 69 68 66 66 66 66 64 66 67 66 66 65 63 65 64 62 60 63 55 53 53 51 51 55 57 57
73 73 74 74 73 73 61 60 64 70 71 71 71 70 70 70 66 62 68 67 67 67 62 61 62 61 60 61 62 62 63 58 55 53 58 54 50 50 49 49 47 53 53
73 72 73 74 71 73 61 59 63 68 70 69 71 71 63 69 61 59 69 67 66 66 66 65 64 62 62 62 60 65 62 55 51 50 56 49 47 48 44 41 44 43 42

GFSMA_sfc_dewp_036.txt.gz
Dewpoint
73 71 71 70 70 70 68 68 70 68 68 66 63 62 59 60 62 60 64 72 72 71 70 71 71 71 72 72 71 72 70 69 70 71 71 71 71 71 70 68 68 70 68
74 73 71 69 70 70 70 69 69 68 69 67 67 64 60 60 64 64 60 67 71 71 70 71 72 72 72 72 72 71 71 71 71 72 71 71 71 71 70 69 69 70 70
74 75 70 69 69 72 72 71 73 72 67 65 65 65 58 61 61 64 61 62 66 71 70 70 71 72 73 72 73 72 72 73 72 71 72 71 71 72 71 71 70 70 71
74 75 71 70 71 71 70 70 72 66 66 63 63 61 60 59 63 62 60 62 63 63 69 71 70 70 70 72 71 73 73 73 73 73 71 71 71 73 72 72 72 71 71
73 74 70 71 75 73 70 71 68 68 64 63 60 61 62 62 62 57 62 64 65 64 63 70 71 71 70 70 71 71 72 74 74 73 72 73 73 73 72 73 73 73 72
73 74 71 72 71 71 69 69 71 68 64 61 55 58 61 63 62 60 59 59 63 66 64 67 67 68 69 68 70 71 70 71 72 72 72 73 73 73 73 73 73 73 73
75 76 72 74 74 71 72 73 70 70 63 63 59 58 60 61 62 59 61 59 61 62 62 64 66 65 67 70 70 70 70 70 70 70 71 72 72 72 72 72 71 70 71
75 75 76 72 74 72 74 74 73 66 65 63 60 60 57 56 57 59 63 60 61 58 59 62 63 67 66 67 70 72 71 71 71 71 71 71 71 70 70 70 69 69 68
75 76 76 75 74 74 70 73 72 70 63 62 65 60 56 57 54 58 63 60 62 60 59 61 62 66 65 58 64 67 70 70 67 64 63 64 64 65 65 65 65 65 65
74 75 76 76 77 72 73 73 71 71 70 61 61 61 65 65 54 54 58 61 61 60 62 59 60 62 63 55 61 64 64 66 64 62 62 61 62 61 61 62 62 62 62
75 73 75 76 76 74 74 75 74 74 68 62 60 60 63 59 63 57 54 57 60 59 60 60 60 59 62 60 58 59 61 63 62 60 60 60 60 60 60 60 60 61 61
70 74 74 76 76 75 75 75 75 74 72 68 61 62 58 57 56 57 56 58 57 59 58 59 60 59 60 60 62 64 65 64 63 61 59 59 60 61 61 61 62 63 63
67 73 75 75 74 76 75 76 76 73 73 70 70 61 60 59 59 56 57 57 55 56 58 58 59 59 59 61 61 65 65 65 65 65 64 63 62 62 63 63 63 64 64
68 72 73 74 75 75 76 76 73 72 72 71 71 68 61 60 59 58 55 55 54 54 56 61 58 57 59 60 64 69 62 66 66 66 65 65 64 65 65 65 66 66 66
69 71 73 75 75 75 76 76 72 73 71 72 70 69 64 60 60 59 58 57 54 52 52 59 54 61 59 60 65 63 65 67 67 66 65 65 65 65 66 66 67 67 67
75 72 73 74 74 75 76 76 73 73 73 70 66 68 68 61 62 61 59 58 57 55 52 55 56 60 61 61 64 64 64 66 67 66 66 65 65 65 65 65 66 66 66
76 75 75 74 73 74 75 76 75 73 73 72 70 68 70 69 61 60 60 59 59 57 55 54 57 63 66 65 62 63 63 62 61 65 66 65 64 64 64 64 65 65 64
76 76 76 75 74 73 74 75 74 72 72 71 70 69 68 66 69 68 61 69 64 64 58 63 63 60 66 66 66 67 62 58 59 64 65 64 64 63 63 64 63 62 61
77 74 75 77 75 74 75 75 74 73 72 72 71 70 69 68 68 64 65 62 62 62 63 59 58 60 59 62 65 66 65 64 61 63 61 62 62 62 62 61 60 59 57
77 77 77 77 76 74 74 73 74 73 73 72 72 71 70 68 69 68 65 67 66 62 64 60 58 57 60 63 62 59 59 61 59 58 61 59 62 63 62 60 59 59 56
77 77 77 77 77 74 70 75 75 73 74 73 72 71 70 69 66 67 64 69 70 65 59 60 59 58 58 58 61 59 57 57 62 61 60 59 59 58 57 60 59 62 60
77 77 77 77 76 71 65 66 72 73 74 74 74 73 72 69 68 65 64 65 68 69 68 59 59 60 66 62 60 59 57 57 55 69 62 58 57 55 56 56 59 57 57
77 77 77 77 77 76 63 64 67 72 73 74 75 73 70 68 69 69 65 64 64 64 65 68 67 65 66 66 66 65 64 61 59 63 62 57 56 55 54 52 57 57 57
77 77 77 77 77 76 64 62 65 73 74 75 75 74 74 73 72 70 70 67 67 69 68 64 67 67 69 67 67 66 66 66 63 61 63 57 54 51 52 51 56 56 56
76 76 75 77 77 76 63 61 65 72 72 75 75 74 75 74 68 63 70 69 69 69 64 62 63 62 62 62 64 61 60 62 56 58 62 55 52 49 50 49 47 55 49
74 73 74 76 73 77 63 59 64 69 71 69 75 76 65 71 62 60 70 71 69 69 68 67 66 64 63 63 61 65 60 57 56 51 57 52 47 47 46 46 44 44 43